Weather History for Bournemouth, United Kingdom

Change the Weather History Date:

Sunday, April 28, 2013

  Actual Average Record
Temperature  
Mean Temperature 39 °F -  
Max Temperature 51 °F 61 °F 73 °F (2007)
Min Temperature 27 °F 44 °F 27 °F (2013)
Degree Days  
Heating Degree Days 26    
Moisture  
Dew Point 35 °F    
Average Humidity 72    
Maximum Humidity 100    
Minimum Humidity 32    
Precipitation  
Precipitation 0.02 in 0.07 in - ()
Sea Level Pressure  
Sea Level Pressure 30.04 in    
Wind  
Wind Speed 6 mph ()    
Max Wind Speed 17 mph    
Max Gust Speed -    
Visibility 7.9 miles    
Events Rain    
Averages and records for this station are not official NWS values.
T = Trace of Precipitation, MM = Missing Value Source: Averaged Metar Reports

Daily Weather History Graph

Daily Weather History Graph

Search for Another Location

Airport:

Trip Planner

Search our weather history database for the weather conditions in past years. The results will help you decide how hot, cold, wet, or windy it might be!

Date:

Astronomy

Apr. 28, 2013 Rise Set
Actual Time 5:46 AM BST 8:23 PM BST
Civil Twilight 5:10 AM BST 9:00 PM BST
Nautical Twilight 4:23 AM BST 9:48 PM BST
Astronomical Twilight 3:27 AM BST 10:44 PM BST
Moon 11:52 PM BST 7:36 AM BST
Length of Visible Light 15h 50m
Length of Day
14h 36m
Waning Gibbous, 90% of the Moon is Illuminated
Apr 28
Waning Gibbous
May 2
Last Quarter
May 10
New
May 18
First Quarter
May 25
Full

Hourly Weather History & Observations

Time (BST) Temp. Windchill Dew Point Humidity Pressure Visibility Wind Dir Wind Speed Gust Speed Precip Events Conditions
12:50 AM 34 °F - 32 °F 89% 30.12 in 8 mi NNW 6.9 mph - -  
3:50 AM 31 °F - 30 °F 93% 30.12 in 7 mi Calm Calm - -  
4:50 AM 26.6 °F 22.6 °F 26.6 °F 100% 30.09 in - NW 3.5 mph - N/A   Clear
5:20 AM 28.4 °F - 28.4 °F 100% 30.09 in 5.6 mi NW 2.3 mph - N/A   Unknown
5:50 AM 30.2 °F - 28.4 °F 93% 30.09 in 5.6 mi SSW 1.2 mph - N/A   Unknown
6:20 AM 30.2 °F - 30.2 °F 100% 30.09 in - West 1.2 mph - N/A   Clear
6:50 AM 33 °F - 32 °F 93% 30.11 in 6 mi NNW 1.2 mph - -  
6:50 AM 32.0 °F - 32.0 °F 100% 30.09 in - NNW 1.2 mph - N/A   Clear
7:20 AM 35.6 °F - 33.8 °F 93% 30.09 in - East 2.3 mph - N/A   Clear
7:50 AM 35.6 °F - 35.6 °F 100% 30.09 in - NNE 1.2 mph - N/A   Clear
8:20 AM 41.0 °F - 37.4 °F 87% 30.09 in - South 1.2 mph - N/A   Clear
8:50 AM 42.8 °F - 37.4 °F 81% 30.09 in - South 2.3 mph - N/A   Clear
9:20 AM 44.6 °F - 37.4 °F 76% 30.09 in - South 2.3 mph - N/A   Clear
9:50 AM 47 °F - 38 °F 61% 30.11 in 13 mi South 3.5 mph - -   Overcast
9:50 AM 46.4 °F 45.2 °F 37.4 °F 71% 30.09 in - Variable 3.5 mph - N/A   Clear
10:20 AM 48.2 °F - 37.4 °F 66% 30.09 in - SSW 5.8 mph - N/A   Clear
10:50 AM 50.0 °F - 37.4 °F 62% 30.09 in 6.2 mi WSW 8.1 mph - N/A   Partly Cloudy
11:20 AM 50.0 °F - 37.4 °F 62% 30.09 in 6.2 mi WSW 8.1 mph - N/A   Partly Cloudy
11:50 AM 48.2 °F - 41.0 °F 76% 30.06 in 6.2 mi SSW 5.8 mph - N/A   Partly Cloudy
12:20 PM 50.0 °F - 39.2 °F 66% 30.06 in 6.2 mi West 11.5 mph - N/A   Partly Cloudy
12:50 PM 49 °F - 39 °F 59% 30.07 in 13 mi West 10.4 mph - -   Scattered Clouds
12:50 PM 48.2 °F - 39.2 °F 71% 30.06 in 6.2 mi WSW 11.5 mph - N/A   Partly Cloudy
1:20 PM 48.2 °F - 39.2 °F 71% 30.06 in 6.2 mi WSW 11.5 mph - N/A   Partly Cloudy
1:50 PM 48.2 °F - 39.2 °F 71% 30.04 in 6.2 mi West 10.4 mph - N/A   Partly Cloudy
2:20 PM 50.0 °F - 33.8 °F 54% 30.04 in 6.2 mi West 12.7 mph - N/A   Partly Cloudy
2:50 PM 50.0 °F - 30.2 °F 47% 30.04 in 6.2 mi West 12.7 mph - N/A   Partly Cloudy
3:20 PM 50.0 °F - 30.2 °F 47% 30.01 in - WSW 15.0 mph - N/A   Clear
3:50 PM 50 °F - 29 °F 32% 30.02 in 25 mi WSW 15.0 mph - -   Overcast
3:50 PM 50.0 °F - 28.4 °F 43% 30.01 in - WSW 15.0 mph - N/A   Clear
4:20 PM 50.0 °F - 30.2 °F 47% 30.01 in - WSW 12.7 mph - N/A   Clear
5:20 PM 50.0 °F - 32.0 °F 50% 29.98 in - SW 13.8 mph - N/A   Clear
5:50 PM 48.2 °F - 33.8 °F 58% 29.98 in - WSW 12.7 mph - N/A   Clear
6:20 PM 48.2 °F - 35.6 °F 62% 29.98 in - SW 10.4 mph - N/A   Clear
6:50 PM 48 °F - 36 °F 52% 29.98 in 19 mi SW 12.7 mph - -   Overcast
6:50 PM 48.2 °F - 35.6 °F 62% 29.98 in - SW 12.7 mph - N/A   Clear
7:20 PM 48.2 °F - 37.4 °F 66% 29.98 in - WSW 12.7 mph - N/A   Clear
7:50 PM 48.2 °F - 37.4 °F 66% 29.98 in - SW 11.5 mph - N/A   Clear
8:20 PM 48.2 °F - 39.2 °F 71% 29.95 in - SW 15.0 mph - N/A   Clear
8:50 PM 48.2 °F - 39.2 °F 71% 29.95 in 6.2 mi WSW 10.4 mph - N/A   Mostly Cloudy
9:20 PM 48.2 °F - 39.2 °F 71% 29.98 in 6.2 mi WSW 13.8 mph - N/A Rain Light Rain
9:50 PM 47 °F - 42 °F 77% 29.97 in 17 mi WSW 15.0 mph - - Rain Rain
9:50 PM 48.2 °F - 42.8 °F 82% 29.95 in 6.2 mi WSW 13.8 mph - N/A Rain Light Rain
10:20 PM 46.4 °F 39.5 °F 41.0 °F 81% 29.95 in 6.2 mi WSW 17.3 mph - N/A Rain Light Rain
10:50 PM 46.4 °F 40.1 °F 41.0 °F 81% 29.95 in 6.2 mi SW 15.0 mph - N/A   Mostly Cloudy